Wind_Speed
33 30 31 32 31 29 29 28 27 30 29 29 28 30 34 35 33 32 32 33 32 30 28 25 22 21 20 20 20 20 20 21 21 22 22 21 19 17 16 14 13 12 11
33 31 31 30 29 27 25 26 27 28 30 30 28 31 31 33 33 32 30 30 32 31 30 27 24 22 20 20 20 19 19 21 24 24 23 20 19 17 15 14 13 10 9
30 29 28 27 24 26 29 29 30 29 30 29 24 27 19 26 30 34 31 28 31 31 30 27 26 24 21 22 20 20 20 22 21 20 20 16 15 14 13 12 11 8 9
30 28 25 25 27 30 31 31 32 30 28 28 24 30 28 28 30 30 31 30 31 29 29 29 29 25 21 19 19 21 20 20 19 16 14 13 12 12 11 10 12 11 13
27 25 24 27 28 30 32 33 33 31 26 26 27 30 29 31 29 26 26 28 27 28 29 28 27 24 23 23 20 22 19 21 18 19 18 18 16 12 13 14 11 9 8
26 23 24 26 30 30 29 32 33 32 27 27 29 32 31 31 30 29 25 28 28 28 28 28 25 24 22 24 24 25 23 21 20 17 17 15 15 11 10 10 10 8 10
25 24 24 26 29 27 27 29 31 31 32 31 39 39 38 27 30 32 20 23 30 27 26 24 22 21 23 24 22 22 23 25 22 24 13 12 14 14 12 11 11 12 11
24 24 22 26 25 25 25 23 26 29 31 34 32 28 30 35 27 40 20 29 31 29 26 21 21 22 22 26 25 23 24 28 26 17 13 14 11 15 12 13 12 11 10
25 26 23 24 23 24 22 20 23 23 32 37 31 31 35 34 26 29 24 32 30 29 24 24 21 20 22 22 28 23 22 22 15 11 8 8 11 12 13 13 12 14 15
27 27 25 23 23 24 25 27 27 28 35 37 37 32 32 29 29 28 30 29 28 26 28 27 24 22 22 26 29 24 27 27 18 9 14 12 12 14 12 14 16 17 15
24 26 26 24 24 24 25 27 25 18 19 20 26 29 33 28 24 33 31 28 39 26 29 27 26 24 26 29 26 27 32 30 19 14 14 12 13 11 13 13 12 14 16
23 22 23 26 28 29 28 26 25 24 26 20 16 22 28 30 28 28 27 37 36 26 28 29 25 26 29 31 36 35 35 17 17 15 12 12 10 11 11 15 15 15 17
22 21 19 23 30 31 33 31 28 26 24 17 18 20 25 31 25 24 29 34 29 22 25 26 22 27 30 29 29 29 24 15 16 14 14 12 13 13 14 14 16 18 18
23 20 19 20 29 33 34 35 26 25 23 21 18 24 27 27 25 22 36 30 32 26 28 28 20 26 29 28 33 34 19 19 16 15 12 12 11 12 14 17 18 18 18
25 18 18 21 27 30 30 32 26 23 24 22 19 24 31 31 36 35 43 47 35 34 29 26 23 25 25 26 21 21 21 19 16 14 14 13 13 17 17 18 16 17 19
25 20 19 23 27 27 26 26 21 22 23 22 28 27 32 34 36 41 38 42 36 34 31 30 23 26 22 27 23 20 20 17 16 17 17 17 18 19 19 18 18 20 23
23 21 20 24 25 24 23 21 18 20 21 21 24 24 31 39 38 39 40 42 34 32 28 29 25 24 25 22 22 18 19 19 19 20 19 20 21 18 19 21 21 23 25
21 23 22 22 24 22 22 18 17 19 20 23 18 22 30 38 41 44 45 47 28 26 30 26 22 31 27 24 22 23 24 22 20 19 19 20 22 22 22 24 24 26 27
21 25 22 20 22 22 19 18 18 18 19 19 13 15 21 34 39 42 54 46 30 27 30 27 24 27 27 27 25 26 24 22 22 21 23 24 23 24 28 30 31 30 27
21 26 21 19 20 21 18 17 17 18 17 13 7 8 21 25 36 37 49 45 35 28 32 31 28 26 30 32 29 28 25 26 26 27 28 30 29 29 31 34 33 31 28
21 22 20 17 17 20 19 18 18 18 17 13 7 16 13 30 42 46 48 38 26 30 31 31 28 26 29 31 28 27 27 29 30 31 34 35 34 35 33 32 34 32 30
24 21 20 16 15 18 18 20 18 18 17 12 15 11 28 31 48 45 39 23 28 29 33 33 26 24 24 28 31 35 35 33 33 35 36 38 41 38 35 32 34 30 29
23 21 19 15 15 16 16 20 17 18 16 14 14 19 23 42 50 49 36 26 25 27 26 23 24 22 25 29 29 32 33 34 35 32 34 34 35 32 31 33 32 28 27
22 19 17 14 14 15 15 19 16 19 18 16 16 26 18 40 46 47 43 31 29 27 28 27 23 23 24 25 23 23 27 30 33 32 35 35 35 34 33 32 27 26 25
23 19 16 14 15 13 13 17 15 18 18 13 15 19 23 21 45 42 46 35 34 37 38 32 27 23 25 25 22 25 25 25 27 38 40 41 37 35 33 28 25 24 25
22 18 14 14 16 13 12 14 14 15 18 13 15 16 27 21 36 37 41 38 35 37 33 32 32 30 28 29 28 29 27 31 36 39 40 35 34 35 32 25 23 25 25
Wind_Direction
306 295 293 296 295 294 293 296 299 299 294 287 277 270 263 260 257 252 246 247 249 250 250 247 242 239 241 241 248 251 254 248 237 237 231 230 231 233 231 232 235 239 240
300 298 299 295 295 294 292 290 293 294 293 287 285 273 259 257 254 253 246 243 242 244 246 247 244 243 244 241 246 251 249 246 242 236 232 229 229 228 228 229 232 231 247
302 301 296 297 295 292 291 288 287 287 289 282 281 252 264 256 258 261 253 242 239 238 238 241 244 243 241 238 241 243 244 242 244 237 236 232 233 226 232 233 235 243 264
307 303 300 300 299 295 289 284 279 279 282 277 270 257 267 257 261 262 254 247 239 236 236 234 234 232 233 235 239 242 236 239 244 248 239 229 228 228 229 227 243 253 252
310 307 298 295 297 294 289 282 277 275 272 271 260 259 258 259 258 256 258 252 238 228 229 229 230 226 232 235 234 235 237 232 226 229 235 227 230 236 251 255 257 258 278
314 306 300 299 301 297 287 283 275 269 260 257 258 256 248 254 252 250 271 246 231 228 225 227 227 223 230 229 227 231 230 214 215 218 224 231 245 237 257 254 256 272 279
312 306 310 310 309 301 296 285 273 268 257 254 253 259 234 250 255 226 263 263 231 213 216 222 223 224 232 235 242 221 237 224 219 228 226 233 235 260 257 252 263 275 271
318 316 319 316 310 306 301 296 277 266 261 257 257 261 271 241 238 222 266 265 231 213 213 207 211 218 227 229 220 226 235 222 222 223 228 244 252 237 249 256 260 262 257
322 321 316 317 313 304 293 287 296 276 264 256 253 250 232 263 239 250 263 241 215 219 212 211 209 215 230 220 228 230 216 212 217 247 273 269 262 259 256 262 257 251 248
325 323 313 320 318 309 291 281 289 290 260 255 243 245 245 258 233 249 242 226 225 221 216 213 210 211 220 224 226 212 210 216 230 228 236 245 255 255 252 243 247 253 253
319 320 312 316 317 316 306 290 287 290 296 285 259 247 240 242 241 241 239 228 224 221 216 212 210 210 215 219 219 215 215 219 212 216 236 247 250 236 231 245 263 262 258
313 317 312 316 313 313 308 299 282 281 281 291 257 244 240 243 237 224 231 218 223 217 213 210 206 211 214 224 237 234 228 211 214 221 221 227 225 223 248 264 263 259 257
310 312 318 314 308 308 307 304 284 272 272 277 258 227 228 230 221 216 207 201 212 212 212 206 209 219 225 235 235 236 218 208 216 214 222 229 228 239 249 258 266 259 257
306 309 319 313 306 306 302 299 287 271 265 256 247 227 224 224 217 204 195 202 220 216 215 209 218 224 229 229 229 232 195 208 214 219 225 228 228 238 247 255 257 260 257
299 306 315 313 306 306 297 293 287 270 270 252 254 240 231 231 233 228 217 217 218 216 220 219 227 224 226 229 196 186 203 210 219 229 229 228 233 234 250 253 254 261 262
295 304 315 311 309 306 297 296 278 266 267 270 266 245 234 231 228 222 210 208 206 211 221 229 221 220 215 190 188 195 210 219 232 233 234 234 237 246 256 261 263 266 260
296 303 309 312 310 308 303 297 273 268 266 285 267 247 242 226 221 211 207 196 192 199 212 218 213 209 196 194 198 201 224 232 235 235 239 244 245 253 261 256 266 270 266
297 296 305 312 312 314 306 291 273 273 272 277 310 253 237 217 211 205 204 194 185 194 209 209 201 201 204 204 209 211 221 236 247 249 253 254 254 261 264 265 274 276 265
292 289 297 308 314 315 308 289 274 278 281 284 301 243 210 207 205 204 201 194 188 196 208 212 204 208 209 214 220 224 227 239 250 254 256 260 264 265 268 269 273 273 260
281 281 295 305 315 317 310 288 275 277 280 279 300 316 201 193 193 187 185 194 201 204 208 213 214 218 220 224 227 231 235 240 245 251 257 260 263 267 271 276 270 266 260
273 277 291 303 314 314 314 292 275 273 276 268 256 194 185 199 183 187 189 195 211 209 208 211 218 220 223 225 228 236 244 248 253 257 261 263 268 269 269 267 265 262 258
268 273 285 298 309 309 313 297 273 269 272 266 238 227 207 197 197 202 193 195 200 201 208 210 218 224 222 231 235 242 247 251 256 261 271 275 269 268 268 259 258 255 252
259 268 279 293 302 299 308 303 276 262 260 255 251 217 210 199 201 199 193 196 201 205 210 205 224 228 232 232 237 242 246 254 262 271 272 267 265 261 255 251 249 247 244
253 265 273 288 288 290 305 303 282 257 253 260 244 225 227 201 206 211 210 197 205 208 209 204 212 223 229 225 230 245 254 260 267 272 260 258 265 255 249 243 243 242 245
251 255 264 278 276 282 298 300 293 255 252 263 246 216 217 203 201 211 225 205 217 208 209 212 219 231 237 239 242 252 254 259 258 260 260 263 259 250 241 235 236 240 246
245 242 255 271 268 270 286 294 294 251 248 250 247 227 208 224 210 218 219 228 226 220 219 224 230 237 245 247 242 247 251 247 251 259 261 253 246 245 246 239 235 245 255
Height
5803 5800 5798 5796 5794 5793 5791 5790 5789 5788 5789 5788 5790 5790 5791 5792 5796 5800 5804 5806 5807 5809 5811 5814 5816 5818 5820 5823 5825 5827 5829 5832 5833 5833 5833 5834 5836 5837 5837 5838 5840 5840 5841
5799 5797 5795 5792 5789 5787 5787 5786 5785 5784 5784 5784 5783 5783 5785 5786 5789 5792 5797 5801 5803 5805 5807 5810 5813 5816 5818 5821 5823 5825 5828 5829 5831 5831 5831 5832 5833 5835 5835 5836 5838 5838 5840
5795 5793 5790 5788 5786 5784 5782 5781 5780 5779 5778 5779 5779 5778 5780 5782 5784 5786 5790 5795 5798 5801 5803 5807 5810 5812 5815 5818 5820 5823 5824 5827 5829 5830 5831 5831 5833 5833 5834 5836 5837 5837 5839
5790 5787 5785 5783 5781 5778 5777 5776 5775 5774 5774 5773 5775 5775 5776 5778 5779 5780 5784 5788 5793 5797 5800 5803 5806 5809 5813 5816 5818 5820 5822 5825 5828 5831 5832 5831 5832 5832 5833 5834 5836 5835 5837
5788 5784 5782 5780 5777 5774 5772 5770 5769 5769 5769 5769 5769 5769 5770 5772 5774 5776 5778 5782 5786 5790 5794 5799 5803 5806 5810 5814 5816 5818 5820 5823 5825 5826 5828 5830 5831 5831 5831 5833 5833 5835 5836
5785 5782 5779 5777 5773 5770 5767 5765 5764 5764 5764 5762 5761 5763 5765 5766 5767 5771 5773 5776 5779 5784 5788 5793 5800 5804 5807 5809 5813 5815 5817 5820 5822 5825 5825 5827 5827 5829 5830 5831 5832 5834 5834
5781 5777 5775 5772 5768 5765 5762 5761 5760 5760 5759 5757 5758 5762 5760 5761 5764 5764 5769 5773 5776 5777 5782 5789 5795 5801 5804 5806 5808 5812 5816 5818 5819 5821 5822 5826 5826 5827 5828 5829 5830 5831 5832
5776 5773 5771 5767 5764 5762 5759 5756 5754 5754 5753 5751 5752 5752 5755 5760 5757 5763 5765 5770 5774 5774 5778 5785 5791 5796 5801 5804 5806 5808 5813 5815 5816 5817 5819 5821 5822 5824 5826 5827 5828 5829 5829
5771 5769 5766 5765 5761 5758 5757 5754 5751 5750 5746 5745 5748 5748 5745 5754 5755 5760 5763 5766 5769 5773 5777 5782 5788 5793 5798 5801 5803 5805 5809 5813 5815 5815 5817 5819 5821 5823 5824 5825 5825 5826 5826
5765 5764 5762 5761 5758 5755 5752 5750 5748 5744 5738 5736 5741 5745 5745 5748 5752 5758 5761 5764 5766 5770 5774 5780 5785 5791 5796 5797 5799 5804 5807 5811 5812 5814 5817 5818 5820 5821 5822 5823 5822 5823 5823
5763 5760 5758 5756 5754 5751 5748 5746 5745 5741 5737 5734 5735 5738 5741 5746 5750 5753 5757 5761 5765 5766 5772 5778 5783 5787 5792 5794 5799 5802 5804 5808 5810 5812 5814 5816 5818 5819 5820 5820 5820 5820 5821
5759 5757 5754 5751 5749 5746 5744 5742 5740 5737 5733 5732 5731 5733 5737 5740 5744 5747 5752 5756 5762 5763 5768 5774 5780 5784 5787 5792 5794 5799 5802 5804 5808 5810 5812 5815 5815 5817 5817 5817 5817 5817 5818
5755 5752 5751 5748 5745 5742 5740 5737 5734 5732 5730 5729 5728 5730 5733 5734 5738 5743 5748 5753 5758 5762 5766 5773 5779 5782 5784 5788 5791 5796 5800 5803 5806 5807 5810 5811 5812 5813 5814 5814 5814 5813 5814
5752 5750 5747 5745 5742 5739 5735 5731 5729 5727 5727 5726 5725 5726 5728 5732 5736 5741 5744 5749 5755 5760 5764 5770 5776 5778 5780 5784 5787 5793 5798 5802 5803 5805 5807 5808 5809 5809 5810 5811 5810 5810 5810
5748 5747 5743 5741 5738 5734 5730 5726 5723 5721 5720 5720 5720 5722 5724 5727 5730 5735 5739 5744 5751 5756 5761 5766 5773 5775 5777 5780 5785 5792 5796 5798 5800 5802 5804 5805 5805 5806 5807 5807 5806 5806 5806
5743 5741 5738 5736 5733 5728 5724 5721 5718 5717 5716 5714 5714 5715 5716 5718 5722 5726 5732 5738 5746 5752 5757 5762 5770 5771 5775 5779 5784 5789 5792 5794 5797 5799 5800 5801 5803 5804 5804 5804 5803 5802 5802
5738 5736 5734 5731 5728 5723 5719 5716 5714 5712 5712 5709 5704 5704 5706 5711 5715 5720 5727 5734 5742 5747 5753 5759 5767 5768 5773 5777 5780 5785 5789 5792 5794 5796 5798 5799 5800 5800 5800 5799 5799 5798 5797
5732 5731 5729 5727 5723 5719 5715 5713 5710 5708 5707 5704 5698 5697 5695 5699 5707 5714 5722 5729 5735 5742 5750 5755 5763 5766 5768 5773 5777 5782 5785 5788 5791 5793 5795 5796 5796 5796 5796 5795 5794 5793 5792
5727 5727 5725 5723 5719 5715 5712 5710 5707 5705 5703 5700 5693 5689 5690 5693 5699 5706 5717 5726 5731 5739 5747 5752 5760 5764 5766 5771 5775 5779 5780 5783 5786 5788 5790 5792 5792 5792 5792 5791 5790 5787 5786
5723 5723 5720 5719 5715 5712 5708 5707 5704 5703 5701 5698 5692 5688 5689 5691 5698 5704 5712 5722 5729 5736 5743 5748 5754 5759 5763 5766 5769 5773 5776 5778 5780 5783 5785 5785 5786 5786 5786 5785 5783 5782 5781
5719 5718 5716 5714 5711 5709 5705 5703 5701 5700 5699 5698 5694 5692 5691 5696 5700 5706 5712 5720 5727 5734 5741 5744 5748 5754 5759 5762 5764 5768 5772 5773 5775 5777 5778 5778 5779 5779 5778 5777 5776 5776 5775
5714 5711 5711 5710 5706 5706 5702 5699 5698 5697 5697 5695 5694 5692 5693 5697 5701 5706 5713 5719 5724 5729 5735 5739 5743 5751 5758 5760 5761 5762 5765 5768 5769 5771 5771 5772 5771 5772 5770 5770 5769 5769 5770
5708 5706 5706 5704 5702 5702 5700 5697 5695 5694 5693 5693 5692 5690 5692 5694 5699 5704 5710 5715 5722 5727 5733 5736 5741 5747 5753 5755 5757 5759 5758 5761 5762 5765 5763 5763 5763 5763 5762 5762 5762 5763 5764
5702 5701 5701 5700 5699 5699 5696 5694 5693 5692 5691 5690 5690 5688 5687 5692 5697 5702 5706 5711 5717 5722 5728 5733 5737 5741 5746 5749 5751 5753 5752 5753 5755 5755 5754 5756 5755 5756 5755 5755 5756 5758 5760
5696 5697 5696 5695 5695 5695 5693 5691 5690 5689 5688 5687 5687 5685 5684 5687 5694 5699 5705 5709 5713 5719 5722 5727 5732 5737 5739 5741 5744 5746 5747 5747 5749 5748 5748 5747 5749 5748 5748 5749 5752 5754 5756
5691 5692 5691 5691 5691 5692 5691 5690 5688 5686 5686 5685 5684 5682 5683 5685 5692 5698 5702 5707 5709 5715 5718 5722 5726 5729 5732 5735 5736 5739 5740 5741 5741 5741 5741 5742 5743 5742 5743 5745 5748 5749 5750